Regional Weather Roundup
Issued by NWS

Home | Current Version | Previous Version | Graphics & Text | Print | Product List | Glossary On
Versions: 1 2 3 4 5 6 7 8 9 10 11 12 13 14 15 16 17 18 19 20 21 22 23 24 25 26 27
000
ASUS45 KSLC 280010
RWRUT

UTAH REGIONAL WEATHER ROUNDUP
NATIONAL WEATHER SERVICE SALT LAKE CITY UT
600 PM MDT THU APR 27 2017

UTZ001>011-023>025-280100-

NORTHERN UTAH

CITY           SKY/WX    TMP DP  RH WIND       PRES   REMARKS
BRIGHAM CITY   CLOUDY    46  28  49 NW14G22   29.83R
HILL AFB       PTSUNNY   46  21  36 NW9       29.81R
LOGAN          CLOUDY    47  25  42 W15       29.79R
OGDEN          PTSUNNY   47  24  40 NW9       29.80R
SALT LAKE CITY PTSUNNY   50  24  36 NW17      29.82S
TOOELE VALLEY  CLOUDY    46  28  49 N15G24    29.84S
WENDOVER       NOT AVBL
HEBER CITY     CLOUDY    41  27  56 N13       29.81R
WEST JORDAN    PTSUNNY   49  32  52 NW16G23   29.84R

$$

UTZ011>015-024>027-280100-

CENTRAL/NORTHEAST UTAH

CITY           SKY/WX    TMP DP  RH WIND       PRES   REMARKS
PROVO AIRPORT  PTSUNNY   45  27  49 NW14      29.84R
MOAB/CANYONLAN MOSUNNY   57  13  17 NW23      29.68R
DELTA          CLOUDY    50  23  34 NW17G25   29.82R
PRICE          SUNNY     48  16  27 NW20G33   29.72S
ROOSEVELT      SUNNY     50  12  22 W32G40    29.73R
VERNAL         CLOUDY    47  24  40 SE14      29.66R

$$

UTZ013>016-019>022-027-280100-

SOUTHERN UTAH

CITY           SKY/WX    TMP DP  RH WIND       PRES   REMARKS
BRYCE CANYON   MOSUNNY   47  20  34 NW17G25   29.79R
CEDAR CITY     CLOUDY    56  19  23 NW9       29.74S
MILFORD        CLOUDY    54  25  32 N16       29.78R
ST GEORGE      MOCLDY    74  26  16 NW15      29.64F
HANKSVILLE     MOSUNNY   59  18  20 NW23G29   29.73S
BLANDING       PTSUNNY   54  12  19 NW22G28   29.76R

$$

REGIONAL REPORTS     COLORADO/ARIZONA

CITY           SKY/WX    TMP DP  RH WIND       PRES   REMARKS
CRAIG, CO      CLOUDY    40  26  57 W20       29.69R WCI  30
GRAND JUNCTION CLOUDY    53  19  26 N16G23    29.65R
RIFLE, CO      LGT RAIN  44  31  60 S7        29.66R
MONTROSE, CO   SUNNY     56  -1  10 W25G33    29.65R
CORTEZ, CO     CLOUDY    54  19  25 NW17      29.67R
COLORADO CITY    N/A     66  27  22 W16G24    29.75S
PAGE, AZ       MOSUNNY   70  21  15 W14G28    29.63F
GRAND CANYON   MOSUNNY   59  24  26 W17G32    29.78S
KINGMAN, AZ    SUNNY     78  27  15 NW13G18   29.71F
FLAGSTAFF, AZ  MOSUNNY   60  16  18 W21G37    29.77S

$$

REGIONAL REPORTS    NEVADA/IDAHO/WYOMING

CITY           SKY/WX    TMP DP  RH WIND       PRES   REMARKS
LAS VEGAS, NV  PTSUNNY   84  17   8 NW13G28   29.61F
ELY, NY        CLOUDY    50  17  27 NW21G31   29.86R
ELKO, NV       MOSUNNY   45  26  47 NW18G25   29.91F
POCATELLO, ID  CLOUDY    39  32  76 N15G29    29.81R WCI  31
BURLEY, ID     LGT RAIN  45  21  38 W22G41    29.82S
EVANSTON, WY   CLOUDY    36  21  54 W20       29.77R WCI  25
ROCK SPRINGS,  CLOUDY    41  14  33 W26G40    29.68R
KEMMERER, WY     N/A     34  21  60 W25G37    29.73R WCI  21

$$




USA.gov is the U.S. government's official web portal to all federal, state and local government web resources and services.